紫金山第2彗星

60P/Tsuchinshan 2 (2025)

English version
Home page
Updated on March 4, 2025

---------------------------------------------------------------------

・ プロフィール

・ 軌道要素

Epoch 2025 May 5.0 TT = JDT 2460800.5
T 2025 July 20.61965 TT                                 Pike
q   1.6456692            (2000.0)            P               Q
n   0.14857998     Peri.  216.92039     -0.56259626     -0.82437536
a   3.5304429      Node   267.39634     +0.77265040     -0.49745464
e   0.5338632      Incl.    3.57988     +0.29410340     -0.27008176
P   6.63
From 1432 observations 2005 Oct. 5-2025 Feb. 23, mean residual 0".7.

・ 星図

・ 光度変化

        m1 = 8.3 + 5 logΔ + 25 log r(t - 35)

---------------------------------------------------------------------

軌道要素はM.P.E.C. 2025-D254に掲載されたものです。
星図はステラナビゲータ Ver.11 (アストロアーツ) で作成したものです。
光度グラフはComet for Windowsで作成したものです。

---------------------------------------------------------------------

Copyright(C) Seiichi Yoshida (comet@aerith.net). All rights reserved.